Location: Bidwell Hollow
(37.7387°N, 90.1707°W)
Time: 02:10:19
(UTC+00:00)

Tiros 1 despin weight - Pass Details

Date: 23 May 2026
Orbit: 554 x 591 km, 48.2° (Epoch: 6 June)

Event Time Altitude Azimuth Distance (km) Brightness Sun altitude
Rises 12:18:40 0° 306° (NW) 2,755 ? 16.5°
Reaches altitude 10° 12:21:09 10° 317° (NW) 1,851 ? 17.0°
Maximum altitude 12:24:53 30° 19° (NNE) 1,024 ? 17.7°
Drops below altitude 10° 12:28:35 10° 81° (E) 1,834 ? 18.4°
Sets 12:31:03 0° 93° (E) 2,724 ? 18.9°
